20:34
Airports
History
Links
Donate
Help keep this website running!
PayPal
Bitcoin
Information on this page is community maintained and may be outdated or inaccurate and is intended for reference only or PC simulator navigating!
Always use approved charts for navigating.
0B2
BrewerUpdated 21-May-2014
Brewer (0B2)
Brewer, Maine, United States (4412)
4
Lat/Lng:44° 45' 49.8" N / 68° 46' 4.3" W
44.763833 / -68.767861
Elevation:125'ft 38mMSL
Declination:W019°
ID / ICAO:0B2
FAA:0B2
Runways:1
Longest:(01-19) 547.2m 1,795ft Grass
Distance To
Airport ID:
Nearby VORs <50NM
Nearby NDBs
Nearby WeatherUpdated 04-27-17 19:53 GMT
Nearby weather at KBGR, Bangor Intl located 4.2 nautical miles from 0B2
Altimeter: 29.94
Visibility: 8.0 statute miles
Wind: 6 knots (190°)
Temp: 17°c 63°f
Humidity: 82.5%

METAR: KBGR 271953Z 19006KT 8SM -DZ OVC013 17/14 A2994 RMK AO2 DZB52 SLP136 P0000 T01720144

(Powered by phpweather)
Runway 01 / 19
Dimensions:547.2 x 30.5m 1795' x 100'ft
Surface:Grass
Runway 01 [A]Runway 19 [B]
Heading:010°MH  351°TH190°MH   171°TH
Lat:
Lng:
44° 45' 40.48"N
68° 46' 2.17"W
44° 45' 58.04"N
68° 46' 6.09"W
Google Map
Nearby Airports
(C) Bangor Intl 4.2 NM
KBGR (WX) NW 315°
(U) Dewitt Fld,old Town Muni 13.8 NM
KOLD NNE 19°
4 Ring Hill 15.0 NM
38B W 277°
(R) Terra B & B 16.5 NM
ME35 NW 314°
(R) Newport Sky Park 23.4 NM
ME68 W 279°
4 Blue Hill 23.9 NM
07B SSE 155°
(U) Belfast Muni 27.3 NM
KBST SSW 206°
VFR Chart
Flight Planning at SkyVector.com